Date String (YYYY-MM-DD hh:mm:ss) UTC,Instrument flags,absolute air pressure of the measurement (hPa),sample flow rate (lpm),inlet stack bypass flow (lpm),air temperature of the measurement (°C),ambient temperature measured by the external sensor (°C),aerosol sample conditioner tube jacket temperature (°C),OPC LED temperature (°C),internal box temperature (°C),relative humidity of the measurement (%),span deviation,mass concentration of particles derived from Lorenz-Mie calculation of OPC scattering (μg/m³),mass concentration of particles derived from Lorenz-Mie calculation of OPC scattering (μg/m³),mass concentration of particles derived from Lorenz-Mie calculation of OPC scattering (μg/m³)
DateTimeUTC,F1_M11,P_M11,Q1_M11,Q2_M11,T1_M11,T2_M11,T3_M11,T4_M11,T5_M11,U1_M11,ZSPAN_M11,X2_M11,X0_M11,X1_M11
2024-05-14 20:00:00,SystemResetWarning,0824.0,5.00,000.00,023.3,021.9,000.0,031.7,024.9,019.2,0000.0,0003.68,0009.70,0002.83
2024-05-14 20:01:00,SystemResetWarning,0824.0,5.00,000.00,023.4,022.3,000.0,031.7,025.1,018.0,0000.0,0003.70,0009.64,0002.83
2024-05-14 20:02:00,SystemResetWarning,0824.0,5.00,000.00,023.5,022.7,000.0,031.6,025.3,018.2,0000.0,0003.68,0009.27,0002.82
2024-05-14 20:03:00,SystemResetWarning,0824.0,5.00,000.00,023.6,023.0,000.0,031.7,025.5,018.6,0000.0,0003.68,0009.10,0002.82
2024-05-14 20:04:00,SystemResetWarning,0824.0,5.00,000.00,023.7,023.3,000.0,031.7,025.6,017.6,0000.0,0003.62,0008.11,0002.82
2024-05-14 20:05:00,SystemResetWarning,0824.0,4.99,000.00,023.7,022.8,000.0,031.8,025.3,017.8,0000.0,0003.59,0008.08,0002.83
2024-05-14 20:06:00,SystemResetWarning,0823.9,5.00,000.00,023.4,021.0,000.0,031.8,024.3,018.2,0000.0,0003.62,0008.21,0002.83
2024-05-14 20:07:00,SystemResetWarning,0823.9,5.02,000.00,023.2,020.8,000.0,031.8,024.2,018.2,0000.0,0003.63,0008.20,0002.83
2024-05-14 20:08:00,SystemResetWarning,0823.9,5.00,000.00,023.2,021.3,000.0,031.7,024.5,018.8,0000.0,0003.64,0007.93,0002.86
2024-05-14 20:09:00,SystemResetWarning,0823.9,5.00,000.00,023.2,021.7,000.0,031.6,024.8,018.5,0000.0,0003.65,0007.01,0002.89
2024-05-14 20:10:00,SystemResetWarning,0823.9,5.00,000.00,023.3,022.1,000.0,031.6,025.0,017.8,0000.0,0003.63,0006.90,0002.91
2024-05-14 20:11:00,SystemResetWarning,0823.9,5.00,000.00,023.4,022.5,000.0,031.6,025.1,017.9,0000.0,0003.62,0006.92,0002.93
2024-05-14 20:12:00,SystemResetWarning,0823.9,5.00,000.00,023.5,022.8,000.0,031.6,025.3,017.6,0000.0,0003.63,0007.42,0002.95
2024-05-14 20:13:00,SystemResetWarning,0823.9,5.00,000.00,023.6,023.0,000.0,031.6,025.5,017.8,0000.0,0003.63,0007.57,0002.98
2024-05-14 20:14:00,SystemResetWarning,0823.9,5.00,000.00,023.7,023.3,000.0,031.6,025.6,018.3,0000.0,0003.65,0007.60,0003.00
2024-05-14 20:15:00,SystemResetWarning,0823.9,4.99,000.00,023.8,023.4,000.0,031.7,025.7,018.0,0000.0,0003.70,0007.79,0003.02
2024-05-14 20:16:00,SystemResetWarning,0823.9,4.98,000.00,023.7,022.1,000.0,031.8,025.0,019.1,0000.0,0003.73,0008.01,0003.04
2024-05-14 20:17:00,SystemResetWarning,0823.8,5.01,000.00,023.4,020.6,000.0,031.8,024.2,019.7,0000.0,0003.74,0008.25,0003.06
2024-05-14 20:18:00,SystemResetWarning,0823.8,5.02,000.00,023.2,020.9,000.0,031.8,024.3,019.5,0000.0,0003.74,0008.24,0003.08
2024-05-14 20:19:00,SystemResetWarning,0823.8,4.99,000.00,023.2,021.3,000.0,031.7,024.5,019.7,0000.0,0003.71,0008.23,0003.06
2024-05-14 20:20:00,SystemResetWarning,0823.8,4.99,000.00,023.3,021.7,000.0,031.6,024.8,019.7,0000.0,0003.69,0008.18,0003.04
2024-05-14 20:21:00,SystemResetWarning,0823.8,4.99,000.00,023.3,022.1,000.0,031.6,025.0,019.2,0000.0,0003.73,0008.26,0003.03
2024-05-14 20:22:00,SystemResetWarning,0823.8,5.00,000.00,023.4,022.4,000.0,031.6,025.2,019.4,0000.0,0003.75,0008.29,0003.03
2024-05-14 20:23:00,SystemResetWarning,0823.8,5.01,000.00,023.5,022.7,000.0,031.6,025.3,018.7,0000.0,0003.75,0008.18,0003.03
2024-05-14 20:24:00,SystemResetWarning,0823.8,5.01,000.00,023.6,023.0,000.0,031.6,025.5,018.9,0000.0,0003.80,0008.14,0003.05
2024-05-14 20:25:00,SystemResetWarning,0823.8,4.99,000.00,023.7,023.2,000.0,031.6,025.6,018.3,0000.0,0003.83,0008.28,0003.06
2024-05-14 20:26:00,SystemResetWarning,0823.8,5.00,000.00,023.8,023.4,000.0,031.7,025.7,018.5,0000.0,0003.84,0008.26,0003.07
2024-05-14 20:27:00,SystemResetWarning,0823.8,5.00,000.00,023.9,023.6,000.0,031.7,025.9,018.6,0000.0,0003.83,0008.07,0003.07
2024-05-14 20:28:00,SystemResetWarning,0823.8,4.99,000.00,024.0,023.5,000.0,031.8,025.8,018.4,0000.0,0003.81,0008.15,0003.07
2024-05-14 20:29:00,SystemResetWarning,0823.8,5.00,000.00,023.8,021.8,000.0,031.9,024.9,018.9,0000.0,0003.84,0008.23,0003.08
2024-05-14 20:30:00,SystemResetWarning,0823.8,5.00,000.00,023.4,020.6,000.0,031.9,024.3,019.5,0000.0,0003.89,0008.38,0003.10
2024-05-14 20:31:00,SystemResetWarning,0823.9,5.02,000.00,023.3,021.0,000.0,031.9,024.4,019.7,0000.0,0003.91,0008.42,0003.11
2024-05-14 20:32:00,SystemResetWarning,0823.9,4.99,000.00,023.3,021.4,000.0,031.8,024.7,019.0,0000.0,0003.88,0008.33,0003.11
2024-05-14 20:33:00,SystemResetWarning,0823.9,4.99,000.00,023.4,021.8,000.0,031.7,024.9,019.3,0000.0,0003.90,0008.42,0003.11
2024-05-14 20:34:00,SystemResetWarning,0823.9,5.00,000.00,023.4,022.2,000.0,031.7,025.1,019.7,0000.0,0003.95,0008.36,0003.11
2024-05-14 20:35:00,SystemResetWarning,0823.9,5.01,000.00,023.5,022.5,000.0,031.6,025.2,019.9,0000.0,0003.96,0008.56,0003.11
2024-05-14 20:36:00,SystemResetWarning,0823.8,5.00,000.00,023.6,022.8,000.0,031.7,025.4,019.0,0000.0,0003.93,0008.43,0003.10
2024-05-14 20:37:00,SystemResetWarning,0823.9,5.00,000.00,023.7,023.1,000.0,031.7,025.5,019.3,0000.0,0003.92,0009.19,0003.09
2024-05-14 20:38:00,SystemResetWarning,0823.8,5.00,000.00,023.8,023.3,000.0,031.7,025.6,019.5,0000.0,0003.97,0009.49,0003.09
2024-05-14 20:39:00,SystemResetWarning,0823.8,5.00,000.00,023.9,023.4,000.0,031.7,025.8,018.7,0000.0,0003.97,0009.22,0003.09
2024-05-14 20:40:00,SystemResetWarning,0823.8,4.99,000.00,024.0,023.6,000.0,031.8,025.9,018.4,0000.0,0003.94,0009.03,0003.07
2024-05-14 20:41:00,SystemResetWarning,0823.8,4.99,000.00,024.0,023.3,000.0,031.9,025.7,018.4,0000.0,0003.89,0008.84,0003.06
2024-05-14 20:42:00,SystemResetWarning,0823.8,5.00,000.00,023.8,021.4,000.0,031.9,024.7,018.6,0000.0,0003.86,0009.32,0003.06
2024-05-14 20:43:00,SystemResetWarning,0823.7,5.01,000.00,023.4,020.6,000.0,032.0,024.2,019.0,0000.0,0003.84,0010.31,0003.04
2024-05-14 20:44:00,SystemResetWarning,0823.8,5.00,000.00,023.3,021.1,000.0,031.9,024.4,019.1,0000.0,0003.82,0010.95,0003.02
2024-05-14 20:45:00,SystemResetWarning,0823.8,4.99,000.00,023.3,021.5,000.0,031.8,024.6,019.2,0000.0,0003.78,0010.84,0003.00
2024-05-14 20:46:00,SystemResetWarning,0823.8,5.00,000.00,023.4,021.9,000.0,031.7,024.9,018.9,0000.0,0003.74,0010.46,0002.99
2024-05-14 20:47:00,SystemResetWarning,0823.8,5.00,000.00,023.5,022.2,000.0,031.7,025.1,018.6,0000.0,0003.75,0010.58,0002.99
2024-05-14 20:48:00,SystemResetWarning,0823.8,5.00,000.00,023.5,022.5,000.0,031.7,025.3,018.0,0000.0,0003.72,0009.99,0002.98
2024-05-14 20:49:00,SystemResetWarning,0823.8,4.99,000.00,023.6,022.8,000.0,031.7,025.4,018.2,0000.0,0003.69,0010.09,0002.97
2024-05-14 20:50:00,SystemResetWarning,0823.8,4.99,000.00,023.7,023.0,000.0,031.7,025.5,017.9,0000.0,0003.66,0010.09,0002.93
2024-05-14 20:51:00,SystemResetWarning,0823.8,5.01,000.00,023.8,023.2,000.0,031.7,025.6,017.5,0000.0,0003.65,0010.22,0002.89
2024-05-14 20:52:00,SystemResetWarning,0823.8,5.02,000.00,023.9,023.4,000.0,031.8,025.8,017.4,0000.0,0003.66,0010.35,0002.87
2024-05-14 20:53:00,SystemResetWarning,0823.8,4.99,000.00,023.9,023.6,000.0,031.8,025.9,017.5,0000.0,0003.65,0010.05,0002.84
2024-05-14 20:54:00,SystemResetWarning,0823.8,4.99,000.00,024.0,023.7,000.0,031.8,026.0,017.6,0000.0,0003.63,0009.14,0002.83
2024-05-14 20:55:00,SystemResetWarning,0823.8,5.00,000.00,024.1,023.8,000.0,031.9,026.1,018.0,0000.0,0003.61,0008.36,0002.82
2024-05-14 20:56:00,SystemResetWarning,0823.7,5.00,000.00,024.1,023.4,000.0,032.0,025.8,018.1,0000.0,0003.58,0008.62,0002.82
2024-05-14 20:57:00,SystemResetWarning,0823.6,5.01,000.00,023.9,021.6,000.0,032.1,025.0,018.1,0000.0,0003.60,0008.91,0002.82
2024-05-14 20:58:00,SystemResetWarning,0823.8,5.01,000.00,023.7,021.6,000.0,032.1,024.9,018.5,0000.0,0003.59,0008.82,0002.82
2024-05-14 20:59:00,SystemResetWarning,0823.6,5.01,000.00,023.7,022.0,000.0,032.0,025.1,018.6,0000.0,0003.59,0008.63,0002.82
